QPF
0.01 0.01 0.00 0.00 0.00 0.00 0.00 0.00 0.01 0.02 0.03 0.05 0.07 0.08 0.09 0.08 0.07 0.07 0.07 0.06 0.07 0.08 0.10 0.08 0.08 0.08 0.10 0.10 0.08 0.11 0.12 0.10 0.08 0.08 0.09 0.08 0.07 0.05 0.05 0.04 0.07 0.07 0.06
0.00 0.00 0.00 0.00 0.00 0.00 0.00 0.00 0.01 0.02 0.02 0.03 0.04 0.06 0.06 0.06 0.07 0.06 0.07 0.04 0.04 0.05 0.06 0.06 0.06 0.07 0.08 0.07 0.06 0.09 0.11 0.09 0.08 0.09 0.10 0.09 0.10 0.06 0.03 0.04 0.05 0.06 0.06
0.00 0.00 0.00 0.00 0.00 0.00 0.00 0.01 0.01 0.02 0.03 0.03 0.03 0.04 0.05 0.05 0.06 0.05 0.04 0.03 0.02 0.02 0.04 0.05 0.05 0.05 0.04 0.05 0.05 0.07 0.09 0.09 0.08 0.07 0.10 0.12 0.11 0.08 0.05 0.04 0.03 0.03 0.04
0.00 0.00 0.00 0.00 0.00 0.00 0.00 0.01 0.01 0.02 0.02 0.02 0.03 0.03 0.05 0.05 0.05 0.04 0.04 0.02 0.01 0.01 0.02 0.04 0.06 0.06 0.06 0.07 0.04 0.06 0.07 0.07 0.07 0.07 0.06 0.07 0.09 0.10 0.08 0.06 0.04 0.03 0.03
0.00 0.00 0.01 0.01 0.00 0.00 0.00 0.01 0.01 0.02 0.01 0.02 0.02 0.03 0.05 0.04 0.03 0.03 0.03 0.03 0.02 0.02 0.01 0.03 0.05 0.06 0.05 0.05 0.04 0.04 0.05 0.06 0.07 0.07 0.07 0.06 0.06 0.07 0.08 0.07 0.07 0.06 0.04
0.00 0.00 0.00 0.00 0.00 0.00 0.00 0.00 0.01 0.01 0.01 0.01 0.01 0.02 0.04 0.04 0.03 0.03 0.03 0.02 0.03 0.03 0.02 0.03 0.04 0.03 0.04 0.04 0.03 0.03 0.04 0.05 0.05 0.06 0.06 0.06 0.06 0.07 0.07 0.07 0.06 0.06 0.04
0.00 0.00 0.00 0.00 0.00 0.00 0.00 0.00 0.00 0.01 0.01 0.01 0.01 0.02 0.03 0.03 0.03 0.02 0.02 0.02 0.02 0.02 0.02 0.02 0.03 0.04 0.04 0.03 0.03 0.03 0.03 0.03 0.03 0.04 0.04 0.03 0.04 0.05 0.06 0.06 0.05 0.04 0.04
0.00 0.00 0.00 0.00 0.00 0.00 0.00 0.00 0.01 0.01 0.01 0.01 0.01 0.02 0.02 0.02 0.02 0.02 0.02 0.02 0.02 0.03 0.02 0.03 0.02 0.02 0.02 0.02 0.03 0.02 0.03 0.03 0.02 0.02 0.04 0.03 0.03 0.04 0.04 0.05 0.06 0.06 0.05
0.00 0.00 0.00 0.00 0.00 0.00 0.00 0.00 0.01 0.02 0.03 0.03 0.03 0.03 0.02 0.02 0.02 0.02 0.01 0.01 0.02 0.02 0.02 0.01 0.01 0.01 0.01 0.02 0.03 0.02 0.03 0.03 0.03 0.03 0.04 0.05 0.04 0.03 0.03 0.05 0.05 0.07 0.08
0.00 0.00 0.00 0.00 0.00 0.00 0.00 0.00 0.00 0.01 0.02 0.03 0.03 0.03 0.03 0.02 0.02 0.01 0.01 0.02 0.02 0.02 0.02 0.01 0.01 0.02 0.01 0.02 0.03 0.02 0.02 0.03 0.04 0.04 0.05 0.05 0.03 0.02 0.03 0.03 0.04 0.06 0.09
0.00 0.00 0.00 0.00 0.01 0.01 0.00 0.00 0.00 0.00 0.01 0.01 0.02 0.03 0.03 0.03 0.02 0.02 0.01 0.01 0.02 0.02 0.02 0.02 0.02 0.02 0.02 0.03 0.03 0.02 0.03 0.03 0.05 0.04 0.05 0.05 0.05 0.04 0.04 0.04 0.05 0.06 0.08
0.00 0.00 0.00 0.01 0.03 0.08 0.04 0.01 0.01 0.01 0.01 0.01 0.01 0.02 0.03 0.02 0.02 0.02 0.02 0.02 0.02 0.03 0.03 0.03 0.03 0.02 0.02 0.03 0.03 0.03 0.05 0.05 0.05 0.05 0.06 0.05 0.06 0.06 0.04 0.04 0.06 0.06 0.07
0.00 0.01 0.01 0.01 0.02 0.02 0.02 0.01 0.00 0.01 0.01 0.01 0.01 0.01 0.02 0.02 0.02 0.02 0.03 0.04 0.04 0.04 0.04 0.03 0.03 0.03 0.03 0.03 0.03 0.04 0.06 0.06 0.06 0.05 0.05 0.06 0.06 0.05 0.05 0.06 0.06 0.05 0.05
0.00 0.00 0.01 0.02 0.02 0.03 0.02 0.01 0.00 0.00 0.01 0.01 0.01 0.02 0.02 0.03 0.03 0.03 0.04 0.04 0.04 0.05 0.04 0.04 0.03 0.03 0.03 0.03 0.03 0.03 0.04 0.05 0.04 0.04 0.03 0.04 0.04 0.04 0.05 0.06 0.06 0.06 0.06
0.00 0.01 0.01 0.02 0.02 0.02 0.02 0.02 0.02 0.01 0.02 0.02 0.03 0.04 0.04 0.03 0.03 0.03 0.03 0.03 0.03 0.03 0.03 0.03 0.03 0.03 0.03 0.02 0.02 0.03 0.03 0.04 0.03 0.03 0.02 0.02 0.02 0.02 0.03 0.03 0.04 0.05 0.04
0.01 0.01 0.01 0.01 0.01 0.01 0.02 0.03 0.03 0.03 0.03 0.03 0.04 0.05 0.04 0.04 0.03 0.04 0.03 0.02 0.02 0.02 0.03 0.03 0.04 0.04 0.02 0.02 0.02 0.02 0.02 0.02 0.02 0.02 0.02 0.02 0.01 0.01 0.02 0.03 0.03 0.04 0.04
0.01 0.01 0.00 0.00 0.00 0.00 0.01 0.02 0.04 0.05 0.06 0.05 0.05 0.05 0.03 0.03 0.03 0.03 0.03 0.02 0.03 0.04 0.03 0.03 0.04 0.04 0.02 0.02 0.02 0.02 0.02 0.03 0.02 0.02 0.03 0.03 0.01 0.01 0.02 0.02 0.02 0.03 0.03
0.00 0.00 0.00 0.00 0.01 0.01 0.02 0.03 0.04 0.05 0.06 0.05 0.04 0.03 0.03 0.03 0.02 0.02 0.02 0.03 0.04 0.04 0.04 0.04 0.04 0.04 0.02 0.03 0.03 0.02 0.02 0.02 0.02 0.03 0.03 0.02 0.02 0.02 0.02 0.02 0.02 0.02 0.02
0.00 0.00 0.00 0.00 0.00 0.01 0.01 0.02 0.03 0.04 0.05 0.05 0.04 0.04 0.04 0.04 0.03 0.02 0.02 0.03 0.03 0.04 0.04 0.04 0.04 0.03 0.02 0.04 0.04 0.02 0.02 0.02 0.01 0.01 0.02 0.02 0.02 0.04 0.04 0.04 0.04 0.03 0.03
0.00 0.00 0.00 0.00 0.00 0.01 0.01 0.01 0.02 0.03 0.03 0.03 0.04 0.04 0.04 0.04 0.04 0.04 0.03 0.03 0.03 0.03 0.03 0.03 0.03 0.02 0.02 0.03 0.03 0.02 0.02 0.03 0.01 0.01 0.01 0.01 0.01 0.02 0.03 0.04 0.04 0.03 0.03
0.00 0.00 0.00 0.00 0.01 0.00 0.00 0.00 0.01 0.02 0.02 0.03 0.03 0.03 0.03 0.04 0.04 0.04 0.03 0.03 0.03 0.03 0.02 0.02 0.03 0.02 0.03 0.02 0.02 0.03 0.03 0.03 0.03 0.02 0.01 0.01 0.01 0.01 0.02 0.03 0.04 0.04 0.03
0.00 0.00 0.00 0.00 0.00 0.00 0.00 0.00 0.01 0.01 0.02 0.02 0.02 0.02 0.03 0.03 0.04 0.04 0.04 0.03 0.03 0.03 0.03 0.03 0.03 0.03 0.03 0.02 0.02 0.02 0.03 0.04 0.03 0.03 0.01 0.01 0.01 0.01 0.02 0.02 0.03 0.02 0.03
0.00 0.00 0.00 0.00 0.00 0.00 0.00 0.00 0.01 0.01 0.01 0.01 0.02 0.02 0.02 0.02 0.03 0.03 0.03 0.03 0.03 0.03 0.03 0.03 0.03 0.03 0.03 0.03 0.02 0.02 0.02 0.03 0.05 0.04 0.03 0.03 0.03 0.02 0.02 0.02 0.02 0.02 0.01
0.02 0.02 0.02 0.01 0.01 0.01 0.01 0.01 0.01 0.01 0.01 0.01 0.02 0.01 0.01 0.01 0.02 0.02 0.03 0.04 0.04 0.04 0.04 0.04 0.04 0.04 0.04 0.04 0.03 0.02 0.02 0.02 0.02 0.03 0.03 0.03 0.02 0.02 0.02 0.02 0.02 0.02 0.01
0.02 0.04 0.04 0.02 0.01 0.01 0.02 0.01 0.02 0.01 0.01 0.02 0.01 0.01 0.01 0.02 0.02 0.02 0.03 0.04 0.04 0.05 0.05 0.05 0.05 0.05 0.04 0.04 0.04 0.04 0.03 0.03 0.03 0.02 0.01 0.01 0.01 0.01 0.01 0.01 0.01 0.01 0.01
0.01 0.02 0.03 0.03 0.02 0.02 0.02 0.01 0.02 0.01 0.02 0.01 0.01 0.02 0.02 0.02 0.02 0.02 0.03 0.04 0.04 0.04 0.04 0.05 0.07 0.08 0.07 0.06 0.05 0.05 0.04 0.03 0.03 0.02 0.01 0.01 0.01 0.01 0.01 0.01 0.01 0.01 0.01
MSLP
1007.56 1007.99 1008.37 1008.70 1008.98 1009.25 1009.53 1009.83 1010.16 1010.52 1010.89 1011.25 1011.58 1011.89 1012.16 1012.40 1012.61 1012.82 1013.02 1013.22 1013.44 1013.67 1013.91 1014.17 1014.45 1014.75 1015.07 1015.40 1015.74 1016.06 1016.35 1016.58 1016.73 1016.80 1016.76 1016.64 1016.45 1016.22 1015.97 1015.74 1015.56 1015.44 1015.41
1006.97 1007.53 1008.03 1008.45 1008.79 1009.09 1009.38 1009.68 1010.01 1010.38 1010.79 1011.20 1011.60 1011.96 1012.27 1012.52 1012.72 1012.88 1013.02 1013.16 1013.31 1013.49 1013.71 1013.96 1014.24 1014.55 1014.88 1015.24 1015.59 1015.94 1016.26 1016.53 1016.74 1016.86 1016.89 1016.83 1016.67 1016.44 1016.15 1015.84 1015.53 1015.27 1015.07
1006.10 1006.81 1007.44 1007.98 1008.42 1008.78 1009.10 1009.42 1009.77 1010.16 1010.59 1011.05 1011.49 1011.90 1012.24 1012.50 1012.68 1012.81 1012.90 1012.99 1013.09 1013.24 1013.43 1013.67 1013.95 1014.27 1014.61 1014.97 1015.32 1015.67 1016.01 1016.31 1016.56 1016.74 1016.85 1016.86 1016.77 1016.58 1016.30 1015.96 1015.58 1015.20 1014.87
1004.99 1005.82 1006.60 1007.27 1007.83 1008.28 1008.66 1009.02 1009.40 1009.82 1010.28 1010.76 1011.24 1011.68 1012.04 1012.31 1012.49 1012.59 1012.66 1012.71 1012.79 1012.91 1013.09 1013.34 1013.62 1013.95 1014.29 1014.64 1014.98 1015.31 1015.64 1015.94 1016.21 1016.45 1016.62 1016.72 1016.72 1016.60 1016.38 1016.05 1015.65 1015.21 1014.77
1003.70 1004.64 1005.55 1006.36 1007.04 1007.60 1008.06 1008.47 1008.89 1009.34 1009.83 1010.35 1010.85 1011.31 1011.69 1011.97 1012.15 1012.25 1012.30 1012.34 1012.41 1012.54 1012.73 1012.99 1013.29 1013.62 1013.96 1014.29 1014.60 1014.90 1015.19 1015.47 1015.74 1016.00 1016.22 1016.39 1016.48 1016.46 1016.32 1016.05 1015.68 1015.22 1014.73
1002.33 1003.33 1004.34 1005.27 1006.08 1006.74 1007.29 1007.78 1008.26 1008.75 1009.27 1009.82 1010.34 1010.83 1011.22 1011.52 1011.70 1011.81 1011.86 1011.91 1012.00 1012.14 1012.36 1012.64 1012.97 1013.31 1013.64 1013.95 1014.22 1014.47 1014.70 1014.93 1015.17 1015.43 1015.68 1015.90 1016.07 1016.14 1016.10 1015.92 1015.61 1015.19 1014.69
1000.98 1002.01 1003.08 1004.10 1004.99 1005.75 1006.40 1006.97 1007.50 1008.05 1008.62 1009.19 1009.75 1010.26 1010.68 1010.99 1011.19 1011.30 1011.37 1011.44 1011.55 1011.72 1011.97 1012.28 1012.63 1012.98 1013.31 1013.60 1013.84 1014.03 1014.20 1014.37 1014.56 1014.78 1015.03 1015.28 1015.51 1015.67 1015.72 1015.65 1015.42 1015.07 1014.61
999.80 1000.80 1001.87 1002.92 1003.87 1004.69 1005.41 1006.05 1006.66 1007.26 1007.89 1008.51 1009.11 1009.65 1010.09 1010.42 1010.64 1010.77 1010.85 1010.94 1011.06 1011.26 1011.53 1011.87 1012.24 1012.61 1012.95 1013.22 1013.43 1013.58 1013.69 1013.79 1013.93 1014.11 1014.34 1014.60 1014.86 1015.09 1015.23 1015.25 1015.12 1014.85 1014.45
998.90 999.81 1000.82 1001.83 1002.78 1003.62 1004.38 1005.07 1005.74 1006.41 1007.09 1007.78 1008.42 1009.00 1009.48 1009.83 1010.06 1010.21 1010.30 1010.40 1010.54 1010.74 1011.04 1011.39 1011.79 1012.17 1012.52 1012.79 1012.98 1013.10 1013.18 1013.24 1013.32 1013.46 1013.66 1013.91 1014.20 1014.46 1014.67 1014.78 1014.75 1014.57 1014.25
998.37 999.14 1000.02 1000.93 1001.80 1002.61 1003.36 1004.08 1004.79 1005.52 1006.26 1007.00 1007.70 1008.32 1008.84 1009.22 1009.48 1009.63 1009.73 1009.83 1009.97 1010.18 1010.47 1010.84 1011.24 1011.64 1012.00 1012.29 1012.49 1012.61 1012.67 1012.71 1012.77 1012.88 1013.06 1013.30 1013.59 1013.88 1014.13 1014.30 1014.35 1014.26 1014.03
998.28 998.87 999.57 1000.30 1001.03 1001.74 1002.43 1003.12 1003.85 1004.60 1005.39 1006.18 1006.94 1007.61 1008.17 1008.58 1008.86 1009.03 1009.13 1009.23 1009.36 1009.56 1009.85 1010.21 1010.62 1011.03 1011.42 1011.73 1011.96 1012.11 1012.19 1012.24 1012.31 1012.41 1012.58 1012.82 1013.10 1013.40 1013.68 1013.89 1014.01 1013.99 1013.84
998.62 999.01 999.48 999.99 1000.53 1001.07 1001.64 1002.26 1002.95 1003.71 1004.52 1005.35 1006.14 1006.85 1007.45 1007.90 1008.20 1008.39 1008.50 1008.60 1008.73 1008.92 1009.19 1009.55 1009.96 1010.39 1010.79 1011.14 1011.41 1011.61 1011.73 1011.83 1011.92 1012.05 1012.22 1012.46 1012.74 1013.05 1013.34 1013.58 1013.73 1013.77 1013.70
999.36 999.53 999.76 1000.02 1000.30 1000.64 1001.05 1001.55 1002.16 1002.88 1003.67 1004.50 1005.32 1006.06 1006.68 1007.16 1007.50 1007.71 1007.85 1007.96 1008.09 1008.28 1008.55 1008.90 1009.31 1009.75 1010.17 1010.55 1010.87 1011.12 1011.31 1011.46 1011.60 1011.76 1011.97 1012.21 1012.50 1012.80 1013.10 1013.35 1013.53 1013.61 1013.59
1000.38 1000.36 1000.34 1000.34 1000.38 1000.48 1000.69 1001.04 1001.53 1002.16 1002.90 1003.70 1004.50 1005.24 1005.88 1006.38 1006.75 1007.00 1007.17 1007.32 1007.47 1007.68 1007.95 1008.30 1008.71 1009.15 1009.59 1009.99 1010.35 1010.65 1010.89 1011.10 1011.30 1011.50 1011.74 1012.00 1012.30 1012.61 1012.90 1013.16 1013.36 1013.47 1013.50
1001.56 1001.38 1001.16 1000.92 1000.71 1000.59 1000.59 1000.76 1001.10 1001.62 1002.26 1002.98 1003.73 1004.43 1005.06 1005.58 1005.97 1006.26 1006.48 1006.67 1006.87 1007.10 1007.40 1007.76 1008.17 1008.60 1009.04 1009.46 1009.83 1010.16 1010.45 1010.70 1010.95 1011.20 1011.47 1011.76 1012.07 1012.38 1012.69 1012.95 1013.16 1013.30 1013.37
1002.76 1002.47 1002.08 1001.66 1001.25 1000.93 1000.74 1000.73 1000.92 1001.28 1001.79 1002.40 1003.05 1003.69 1004.27 1004.77 1005.17 1005.50 1005.77 1006.02 1006.27 1006.55 1006.88 1007.25 1007.66 1008.09 1008.51 1008.91 1009.29 1009.62 1009.93 1010.22 1010.50 1010.79 1011.09 1011.41 1011.74 1012.06 1012.37 1012.65 1012.87 1013.03 1013.13
1003.85 1003.50 1003.01 1002.46 1001.92 1001.45 1001.11 1000.95 1000.97 1001.18 1001.53 1001.99 1002.51 1003.04 1003.54 1003.99 1004.39 1004.73 1005.04 1005.34 1005.65 1005.98 1006.34 1006.73 1007.14 1007.55 1007.95 1008.33 1008.68 1009.01 1009.32 1009.61 1009.92 1010.23 1010.56 1010.91 1011.26 1011.61 1011.93 1012.22 1012.46 1012.64 1012.77
1004.73 1004.37 1003.85 1003.25 1002.64 1002.09 1001.65 1001.37 1001.26 1001.31 1001.49 1001.79 1002.14 1002.53 1002.92 1003.29 1003.64 1003.97 1004.29 1004.63 1004.98 1005.35 1005.74 1006.14 1006.55 1006.94 1007.31 1007.66 1007.98 1008.29 1008.58 1008.88 1009.20 1009.53 1009.89 1010.26 1010.64 1011.01 1011.35 1011.66 1011.91 1012.11 1012.26
1005.35 1005.02 1004.53 1003.95 1003.34 1002.77 1002.29 1001.93 1001.71 1001.63 1001.66 1001.78 1001.96 1002.17 1002.41 1002.67 1002.94 1003.22 1003.53 1003.88 1004.24 1004.64 1005.04 1005.45 1005.85 1006.22 1006.57 1006.88 1007.18 1007.46 1007.75 1008.05 1008.38 1008.74 1009.13 1009.53 1009.93 1010.32 1010.69 1011.00 1011.27 1011.49 1011.65
1005.73 1005.46 1005.03 1004.51 1003.96 1003.42 1002.95 1002.56 1002.28 1002.08 1001.97 1001.92 1001.92 1001.96 1002.04 1002.15 1002.31 1002.52 1002.78 1003.09 1003.45 1003.84 1004.24 1004.65 1005.04 1005.39 1005.72 1006.02 1006.30 1006.58 1006.88 1007.19 1007.55 1007.93 1008.34 1008.78 1009.21 1009.62 1009.99 1010.32 1010.59 1010.81 1010.97
1005.91 1005.69 1005.34 1004.91 1004.45 1003.99 1003.56 1003.18 1002.86 1002.59 1002.36 1002.16 1002.00 1001.86 1001.77 1001.73 1001.76 1001.86 1002.04 1002.29 1002.61 1002.98 1003.37 1003.76 1004.13 1004.49 1004.81 1005.11 1005.41 1005.70 1006.02 1006.37 1006.76 1007.18 1007.63 1008.08 1008.53 1008.95 1009.33 1009.65 1009.91 1010.11 1010.26
1005.92 1005.76 1005.49 1005.16 1004.79 1004.42 1004.06 1003.71 1003.38 1003.06 1002.74 1002.43 1002.12 1001.84 1001.59 1001.40 1001.29 1001.28 1001.36 1001.53 1001.79 1002.11 1002.47 1002.84 1003.21 1003.56 1003.90 1004.23 1004.55 1004.89 1005.25 1005.65 1006.08 1006.55 1007.02 1007.50 1007.95 1008.37 1008.73 1009.03 1009.26 1009.43 1009.55
1005.82 1005.69 1005.49 1005.24 1004.97 1004.68 1004.39 1004.09 1003.77 1003.43 1003.06 1002.66 1002.24 1001.84 1001.46 1001.14 1000.91 1000.78 1000.76 1000.85 1001.04 1001.30 1001.62 1001.97 1002.33 1002.70 1003.06 1003.42 1003.80 1004.20 1004.62 1005.07 1005.55 1006.05 1006.55 1007.03 1007.47 1007.86 1008.18 1008.44 1008.62 1008.75 1008.84
1005.63 1005.52 1005.36 1005.17 1004.97 1004.76 1004.53 1004.28 1003.98 1003.64 1003.24 1002.79 1002.31 1001.82 1001.36 1000.95 1000.62 1000.40 1000.29 1000.29 1000.41 1000.61 1000.89 1001.21 1001.57 1001.95 1002.35 1002.76 1003.19 1003.65 1004.13 1004.63 1005.15 1005.67 1006.17 1006.63 1007.04 1007.39 1007.65 1007.85 1007.97 1008.05 1008.09
1005.34 1005.23 1005.09 1004.95 1004.80 1004.65 1004.47 1004.25 1003.98 1003.65 1003.26 1002.80 1002.30 1001.78 1001.27 1000.80 1000.41 1000.13 999.95 999.89 999.94 1000.09 1000.33 1000.63 1000.99 1001.38 1001.80 1002.26 1002.73 1003.24 1003.76 1004.30 1004.83 1005.35 1005.83 1006.25 1006.61 1006.88 1007.08 1007.20 1007.26 1007.28 1007.28
1004.94 1004.82 1004.70 1004.58 1004.46 1004.34 1004.20 1004.02 1003.79 1003.49 1003.12 1002.68 1002.20 1001.69 1001.18 1000.70 1000.29 999.97 999.76 999.66 999.66 999.77 999.97 1000.25 1000.59 1000.98 1001.42 1001.90 1002.41 1002.93 1003.48 1004.02 1004.54 1005.02 1005.45 1005.81 1006.09 1006.29 1006.41 1006.45 1006.45 1006.42 1006.39
Thickness
5835 5833 5830 5826 5820 5814 5808 5804 5800 5797 5795 5791 5787 5784 5783 5783 5783 5781 5779 5777 5775 5774 5772 5771 5770 5769 5767 5766 5765 5763 5761 5761 5762 5758 5756 5759 5763 5762 5761 5761 5760 5760 5759
5834 5832 5830 5827 5821 5815 5811 5807 5803 5800 5797 5794 5791 5789 5787 5785 5784 5783 5780 5778 5777 5775 5774 5771 5770 5769 5767 5766 5765 5763 5761 5761 5763 5758 5752 5748 5751 5757 5762 5760 5759 5758 5758
5836 5833 5830 5828 5824 5819 5814 5812 5807 5803 5800 5798 5795 5792 5788 5786 5783 5781 5780 5780 5778 5777 5775 5773 5771 5770 5769 5766 5766 5764 5762 5759 5762 5763 5756 5747 5743 5748 5755 5757 5758 5757 5756
5845 5838 5833 5829 5827 5824 5820 5815 5811 5807 5804 5801 5796 5791 5785 5782 5783 5783 5782 5781 5780 5778 5776 5774 5772 5770 5769 5767 5766 5766 5765 5762 5759 5761 5762 5759 5755 5747 5743 5750 5754 5755 5754
5851 5844 5838 5833 5833 5830 5825 5819 5813 5809 5806 5803 5799 5794 5790 5788 5787 5786 5783 5782 5781 5780 5778 5776 5773 5771 5769 5768 5767 5766 5765 5764 5761 5759 5760 5759 5758 5755 5746 5742 5746 5750 5752
5855 5850 5845 5841 5837 5834 5829 5823 5815 5811 5808 5804 5801 5797 5792 5790 5787 5784 5782 5781 5781 5780 5779 5777 5774 5772 5770 5768 5767 5766 5765 5764 5762 5761 5760 5756 5754 5752 5749 5744 5743 5744 5748
5856 5850 5844 5839 5836 5833 5830 5825 5817 5811 5809 5806 5802 5799 5796 5792 5788 5786 5784 5782 5781 5779 5778 5777 5775 5773 5771 5769 5767 5766 5765 5764 5762 5760 5759 5759 5757 5756 5753 5747 5743 5743 5745
5857 5852 5847 5842 5838 5835 5830 5825 5818 5813 5810 5807 5803 5801 5798 5795 5792 5789 5787 5784 5782 5782 5780 5777 5775 5773 5771 5770 5768 5766 5765 5763 5762 5761 5759 5758 5758 5757 5754 5750 5744 5738 5738
5857 5853 5849 5845 5841 5836 5832 5827 5820 5814 5811 5808 5804 5801 5798 5796 5793 5791 5788 5786 5784 5783 5781 5778 5775 5773 5771 5769 5768 5765 5764 5762 5761 5759 5758 5756 5756 5756 5755 5753 5749 5740 5732
5856 5853 5849 5846 5843 5839 5834 5829 5823 5817 5813 5810 5806 5803 5799 5796 5794 5791 5788 5786 5784 5783 5780 5778 5775 5772 5770 5768 5766 5764 5763 5761 5759 5757 5755 5754 5754 5753 5753 5751 5749 5746 5738
5855 5852 5849 5846 5842 5838 5834 5828 5823 5818 5813 5810 5806 5804 5800 5797 5794 5790 5788 5786 5783 5781 5778 5776 5773 5770 5768 5766 5764 5762 5761 5758 5756 5755 5753 5750 5750 5749 5749 5748 5746 5744 5740
5856 5852 5847 5842 5839 5834 5831 5826 5822 5817 5814 5810 5807 5803 5801 5798 5793 5790 5787 5785 5782 5780 5777 5774 5771 5769 5767 5765 5762 5759 5759 5756 5753 5752 5750 5748 5748 5746 5745 5743 5741 5740 5738
5851 5848 5842 5837 5834 5832 5828 5825 5822 5818 5814 5811 5806 5802 5798 5795 5791 5789 5786 5783 5780 5778 5775 5772 5769 5766 5765 5762 5760 5758 5757 5755 5752 5750 5747 5746 5744 5742 5741 5740 5738 5737 5735
5845 5842 5836 5833 5829 5828 5825 5822 5819 5817 5814 5809 5803 5799 5796 5793 5790 5787 5784 5781 5779 5776 5773 5770 5767 5765 5763 5760 5758 5757 5755 5753 5751 5749 5747 5744 5742 5739 5738 5737 5735 5733 5729
5838 5834 5830 5827 5825 5822 5819 5817 5815 5813 5810 5805 5800 5796 5794 5791 5787 5784 5782 5779 5777 5775 5771 5768 5765 5763 5761 5758 5756 5754 5752 5750 5747 5746 5744 5742 5740 5737 5735 5734 5731 5728 5725
5832 5830 5826 5822 5819 5816 5814 5812 5809 5808 5805 5800 5796 5794 5791 5787 5784 5781 5779 5776 5773 5771 5768 5765 5762 5759 5758 5755 5752 5750 5749 5747 5744 5741 5741 5739 5737 5735 5732 5730 5727 5724 5720
5826 5824 5821 5818 5815 5813 5810 5806 5804 5802 5799 5795 5792 5789 5787 5783 5780 5779 5775 5771 5768 5766 5763 5761 5758 5755 5752 5750 5748 5746 5744 5743 5741 5739 5737 5737 5736 5732 5729 5726 5723 5720 5717
5820 5818 5816 5814 5812 5809 5806 5803 5800 5795 5792 5789 5786 5785 5781 5778 5776 5773 5769 5767 5764 5761 5759 5756 5754 5752 5749 5746 5743 5742 5741 5739 5738 5736 5734 5731 5730 5728 5725 5723 5719 5717 5715
5814 5814 5812 5810 5806 5803 5800 5796 5792 5789 5785 5782 5780 5779 5776 5773 5770 5766 5764 5761 5758 5756 5754 5752 5750 5747 5745 5742 5739 5736 5736 5734 5733 5732 5729 5728 5725 5722 5720 5718 5714 5712 5711
5808 5807 5806 5803 5798 5795 5793 5787 5784 5781 5778 5777 5775 5774 5771 5767 5763 5760 5758 5755 5752 5750 5749 5747 5746 5743 5741 5737 5734 5730 5731 5730 5728 5726 5725 5722 5720 5717 5714 5712 5709 5706 5705
5798 5797 5795 5792 5789 5788 5785 5778 5775 5772 5772 5772 5769 5767 5764 5761 5758 5755 5752 5749 5746 5744 5742 5741 5741 5739 5737 5732 5728 5726 5726 5724 5722 5721 5719 5718 5715 5712 5709 5706 5705 5703 5701
5785 5785 5782 5781 5781 5779 5775 5770 5767 5767 5766 5764 5761 5758 5756 5754 5752 5747 5745 5742 5739 5737 5735 5733 5733 5733 5732 5729 5724 5721 5720 5718 5716 5714 5714 5712 5709 5706 5704 5702 5700 5698 5695
5772 5773 5771 5769 5770 5770 5766 5761 5761 5760 5758 5755 5752 5750 5748 5747 5745 5740 5737 5734 5732 5730 5728 5726 5725 5726 5726 5723 5720 5716 5714 5711 5709 5708 5707 5704 5701 5699 5698 5696 5694 5691 5690
5759 5759 5758 5756 5757 5759 5758 5756 5754 5752 5749 5745 5743 5742 5740 5738 5737 5734 5732 5729 5726 5724 5722 5720 5719 5719 5718 5716 5713 5708 5704 5702 5701 5699 5697 5695 5694 5693 5692 5690 5688 5687 5686
5748 5747 5744 5743 5745 5748 5747 5747 5746 5743 5739 5736 5735 5734 5733 5731 5728 5727 5725 5723 5721 5720 5716 5715 5714 5711 5709 5707 5706 5703 5700 5697 5695 5691 5690 5689 5688 5688 5688 5687 5685 5683 5681
5737 5736 5735 5735 5736 5737 5736 5736 5736 5734 5730 5727 5726 5726 5725 5724 5722 5719 5717 5714 5713 5710 5708 5707 5705 5703 5701 5700 5698 5695 5693 5690 5687 5684 5684 5684 5684 5684 5683 5681 5679 5677 5675